contact:dominique.lefevre@mio.osupytheas.fr, maurice.libes@osupytheas.fr, didier.mallarino@osupytheas.fr
Project:EMSO http://www.emso-fr.org/EMSO-France
Depth: 2436.0 m
Title:EMSO Ligure Ouest : Data MII capteur AQUADOPP
Date,Latitude,Longitude,X_East,Y_North,Z_Up,Amplitude_X,Amplitude_Y,Amplitude_Z,Batterie,SoundSpeed,Heading,Pitch,Roll,Pressure,TIS,Speed,Direction
, degrees North, degrees East, m.s-1, m.s-1,m.s-1, 1, 1, 1, Volt, m.s-1, degree, degree, degree, dbar, degree_C, m.s-1, degree
2022-07-14T00:04:03,42.805,6.029,0.015,0.019,-0.01,105.0,102.0,101.0,13.4,1505.2,325.6,-0.7,1.9,2470.881,13.29,0.024,38.3
2022-07-14T00:07:03,42.805,6.029,-0.006,0.016,-0.012,104.0,104.0,102.0,13.4,1505.2,329.5,-0.7,1.8,2470.881,13.29,0.017,339.4
2022-07-14T00:10:03,42.805,6.029,0.016,0.005,-0.005,104.0,103.0,102.0,13.4,1505.2,332.4,-0.8,1.8,2470.898,13.29,0.016,72.6
2022-07-14T00:13:03,42.805,6.029,0.0,0.035,-0.01,104.0,104.0,102.0,13.3,1505.2,319.0,-0.8,1.8,2470.89,13.29,0.035,0.0
2022-07-14T00:16:03,42.805,6.029,-0.01,0.018,0.007,104.0,105.0,102.0,13.4,1505.2,320.7,-0.8,1.9,2470.9,13.29,0.02,330.9
2022-07-14T00:19:03,42.805,6.029,-0.011,0.015,-0.05,105.0,103.0,102.0,13.4,1505.2,325.0,-0.7,1.8,2470.879,13.29,0.018,323.7
2022-07-14T00:22:03,42.805,6.029,-0.022,0.003,0.001,105.0,104.0,102.0,13.3,1505.2,327.2,-0.8,1.8,2470.889,13.29,0.022,277.8
2022-07-14T00:25:03,42.805,6.029,-0.003,0.001,-0.01,103.0,104.0,101.0,13.3,1505.2,324.5,-0.8,1.8,2470.885,13.29,0.003,288.4
2022-07-14T00:28:03,42.805,6.029,-0.015,0.015,0.007,104.0,105.0,101.0,13.4,1505.2,321.0,-0.8,1.8,2470.855,13.29,0.021,315.0
2022-07-14T00:31:03,42.805,6.029,-0.01,0.001,0.018,104.0,104.0,102.0,13.4,1505.2,324.1,-0.8,1.8,2470.837,13.29,0.01,275.7
2022-07-14T00:34:03,42.805,6.029,-0.007,-0.005,-0.011,103.0,105.0,102.0,13.4,1505.2,319.6,-0.8,1.9,2470.883,13.29,0.008,234.5
2022-07-14T00:37:03,42.805,6.029,0.013,0.007,-0.014,106.0,106.0,102.0,13.3,1505.2,332.4,-0.7,1.8,2470.85,13.29,0.014,61.7
2022-07-14T00:40:03,42.805,6.029,0.003,0.009,-0.021,103.0,102.0,102.0,13.3,1505.2,328.7,-0.8,1.8,2470.87,13.29,0.009,18.4
2022-07-14T00:43:03,42.805,6.029,-0.005,0.01,-0.032,103.0,105.0,102.0,13.4,1505.2,332.6,-0.8,1.8,2470.838,13.29,0.011,333.4
2022-07-14T00:46:03,42.805,6.029,0.006,0.017,-0.043,104.0,104.0,101.0,13.3,1505.2,330.5,-0.8,1.8,2470.85,13.29,0.018,19.4
2022-07-14T00:49:03,42.805,6.029,0.01,0.0,-0.019,105.0,105.0,103.0,13.4,1505.2,332.0,-0.8,1.8,2470.872,13.29,0.01,90.0
2022-07-14T00:52:03,42.805,6.029,-0.024,0.004,-0.027,105.0,104.0,101.0,13.3,1505.2,333.9,-0.8,1.8,2470.844,13.29,0.024,279.5
2022-07-14T00:55:03,42.805,6.029,0.004,-0.005,-0.02,107.0,103.0,102.0,13.3,1505.2,327.5,-0.8,1.8,2470.854,13.29,0.006,141.3
2022-07-14T00:58:03,42.805,6.029,-0.002,0.01,-0.009,104.0,105.0,101.0,13.4,1505.2,331.8,-0.8,1.8,2470.874,13.29,0.01,348.7
2022-07-14T01:04:03,42.805,6.029,-0.004,0.003,0.019,105.0,106.0,103.0,13.4,1505.2,322.1,-0.7,1.8,2470.9,13.29,0.005,306.9
2022-07-14T01:07:03,42.805,6.029,0.001,-0.008,-0.028,107.0,106.0,103.0,13.4,1505.2,332.1,-0.8,1.8,2470.882,13.29,0.008,172.9
2022-07-14T01:10:03,42.805,6.029,-0.016,0.018,-0.012,108.0,103.0,102.0,13.4,1505.2,326.5,-0.8,1.8,2470.857,13.29,0.024,318.4
2022-07-14T01:13:03,42.805,6.029,0.0,0.009,-0.033,104.0,105.0,102.0,13.4,1505.2,329.1,-0.7,1.8,2470.85,13.29,0.009,0.0
2022-07-14T01:16:03,42.805,6.029,-0.009,-0.007,-0.005,105.0,103.0,102.0,13.3,1505.2,327.4,-0.8,1.8,2470.813,13.29,0.011,232.1
2022-07-14T01:19:03,42.805,6.029,0.029,0.002,0.0,104.0,105.0,102.0,13.4,1505.2,323.2,-0.8,1.9,2470.848,13.29,0.029,86.1
2022-07-14T01:22:03,42.805,6.029,0.002,0.019,-0.01,105.0,103.0,102.0,13.4,1505.2,332.2,-0.8,1.8,2470.861,13.29,0.019,6.0
2022-07-14T01:25:03,42.805,6.029,-0.001,0.006,-0.015,104.0,105.0,102.0,13.4,1505.2,329.3,-0.8,1.8,2470.825,13.29,0.006,350.5
2022-07-14T01:28:03,42.805,6.029,0.009,0.003,-0.011,105.0,105.0,102.0,13.3,1505.2,318.8,-0.7,1.8,2470.82,13.29,0.009,71.6
2022-07-14T01:31:03,42.805,6.029,0.0,0.006,-0.039,107.0,103.0,101.0,13.4,1505.2,323.9,-0.7,1.8,2470.828,13.29,0.006,0.0
2022-07-14T01:34:03,42.805,6.029,-0.005,0.007,-0.007,105.0,105.0,100.0,13.4,1505.2,332.0,-0.7,1.8,2470.792,13.29,0.008,324.5
2022-07-14T01:37:03,42.805,6.029,-0.004,0.009,-0.002,102.0,104.0,103.0,13.4,1505.2,329.7,-0.7,1.8,2470.816,13.29,0.009,336.0
2022-07-14T01:40:03,42.805,6.029,0.003,0.0,-0.011,106.0,104.0,102.0,13.4,1505.2,326.7,-0.8,1.8,2470.78,13.29,0.003,90.0
2022-07-14T01:43:03,42.805,6.029,-0.014,0.01,-0.006,106.0,103.0,102.0,13.4,1505.2,326.3,-0.8,1.8,2470.785,13.3,0.017,305.5
2022-07-14T01:46:03,42.805,6.029,-0.005,-0.004,0.003,105.0,104.0,103.0,13.3,1505.2,327.8,-0.7,1.8,2470.803,13.3,0.006,231.3
2022-07-14T01:49:03,42.805,6.029,0.001,0.015,0.004,105.0,106.0,102.0,13.3,1505.2,329.8,-0.7,1.8,2470.833,13.3,0.015,3.8
2022-07-14T01:52:03,42.805,6.029,0.0,-0.013,-0.045,106.0,104.0,102.0,13.4,1505.2,328.6,-0.7,1.8,2470.804,13.29,0.013,180.0
2022-07-14T01:55:03,42.805,6.029,0.001,-0.001,0.023,104.0,105.0,101.0,13.4,1505.2,327.8,-0.8,1.8,2470.829,13.29,0.001,135.0
2022-07-14T01:58:03,42.805,6.029,-0.016,0.013,-0.012,107.0,104.0,100.0,13.4,1505.2,320.4,-0.8,1.8,2470.799,13.3,0.02,309.1
2022-07-14T02:04:03,42.805,6.029,0.019,0.02,-0.024,107.0,103.0,102.0,13.4,1505.2,328.9,-0.7,1.8,2470.854,13.29,0.027,43.5
2022-07-14T02:07:03,42.805,6.029,-0.002,0.001,-0.031,104.0,104.0,102.0,13.3,1505.2,326.3,-0.8,1.8,2470.847,13.29,0.002,296.6
2022-07-14T02:10:03,42.805,6.029,-0.003,0.0,-0.004,105.0,110.0,102.0,13.4,1505.2,322.8,-0.8,1.8,2470.831,13.29,0.003,270.0
2022-07-14T02:13:03,42.805,6.029,-0.006,0.009,-0.028,105.0,105.0,102.0,13.3,1505.2,332.9,-0.8,1.8,2470.8,13.29,0.01,326.3
2022-07-14T02:16:03,42.805,6.029,0.002,0.007,-0.02,107.0,104.0,103.0,13.3,1505.2,328.6,-0.8,1.8,2470.836,13.29,0.007,15.9
2022-07-14T02:19:03,42.805,6.029,0.007,0.026,0.0,106.0,104.0,103.0,13.4,1505.2,325.4,-0.8,1.8,2470.829,13.29,0.026,15.1
2022-07-14T02:22:03,42.805,6.029,0.003,0.017,-0.025,105.0,105.0,101.0,13.3,1505.2,322.7,-0.7,1.8,2470.808,13.29,0.017,10.0
2022-07-14T02:25:03,42.805,6.029,-0.022,0.013,-0.053,107.0,104.0,102.0,13.3,1505.2,318.8,-0.7,1.8,2470.792,13.29,0.025,300.6
2022-07-14T02:28:03,42.805,6.029,-0.017,0.0,0.011,106.0,104.0,100.0,13.4,1505.2,328.7,-0.8,1.8,2470.783,13.29,0.017,270.0
2022-07-14T02:31:03,42.805,6.029,-0.001,0.016,-0.003,105.0,106.0,102.0,13.4,1505.2,329.2,-0.8,1.8,2470.788,13.3,0.016,356.4
2022-07-14T02:34:03,42.805,6.029,0.012,0.02,-0.012,104.0,104.0,103.0,13.4,1505.2,321.0,-0.7,1.8,2470.841,13.3,0.023,31.0
2022-07-14T02:37:03,42.805,6.029,-0.002,-0.001,-0.034,104.0,106.0,102.0,13.3,1505.2,328.2,-0.8,1.8,2470.763,13.3,0.002,243.4
2022-07-14T02:40:03,42.805,6.029,-0.006,0.001,-0.037,105.0,103.0,103.0,13.3,1505.2,329.6,-0.8,1.9,2470.793,13.3,0.006,279.5
2022-07-14T02:43:03,42.805,6.029,0.01,0.0,-0.025,104.0,105.0,102.0,13.4,1505.2,322.4,-0.7,1.8,2470.829,13.3,0.01,90.0
2022-07-14T02:46:03,42.805,6.029,-0.012,0.013,-0.013,111.0,104.0,102.0,13.4,1505.2,329.0,-0.7,1.8,2470.782,13.3,0.017,317.3
2022-07-14T02:49:03,42.805,6.029,0.0,0.004,-0.002,106.0,106.0,102.0,13.4,1505.2,319.6,-0.7,1.8,2470.795,13.3,0.004,0.0
2022-07-14T02:52:03,42.805,6.029,0.004,-0.001,-0.028,104.0,106.0,103.0,13.4,1505.2,321.7,-0.8,1.8,2470.815,13.3,0.004,104.0
2022-07-14T02:55:03,42.805,6.029,-0.006,-0.011,-0.042,106.0,105.0,110.0,13.4,1505.2,325.8,-0.7,1.8,2470.802,13.3,0.012,208.6
2022-07-14T02:58:03,42.805,6.029,0.013,0.006,-0.002,105.0,106.0,101.0,13.3,1505.2,328.0,-0.7,1.8,2470.788,13.3,0.014,65.2
2022-07-14T03:04:03,42.805,6.029,0.0,0.008,-0.009,104.0,106.0,103.0,13.4,1505.2,333.1,-0.8,1.8,2470.868,13.29,0.008,0.0
2022-07-14T03:07:03,42.805,6.029,-0.006,0.002,-0.005,106.0,103.0,103.0,13.4,1505.2,323.8,-0.8,1.9,2470.825,13.29,0.006,288.4
2022-07-14T03:10:03,42.805,6.029,-0.01,-0.011,-0.018,104.0,105.0,102.0,13.4,1505.2,323.7,-0.8,1.8,2470.811,13.29,0.014,222.3
2022-07-14T03:13:03,42.805,6.029,0.0,0.008,-0.016,106.0,105.0,103.0,13.4,1505.2,323.2,-0.8,1.8,2470.848,13.29,0.008,0.0
2022-07-14T03:16:03,42.805,6.029,0.01,0.004,0.0,105.0,106.0,102.0,13.4,1505.2,330.6,-0.7,1.8,2470.837,13.29,0.01,68.2
2022-07-14T03:19:03,42.805,6.029,-0.004,0.005,-0.019,107.0,103.0,102.0,13.4,1505.2,332.9,-0.8,1.8,2470.798,13.29,0.006,321.3
2022-07-14T03:22:03,42.805,6.029,0.011,0.01,-0.008,104.0,104.0,102.0,13.4,1505.2,331.0,-0.8,1.9,2470.816,13.29,0.014,47.7
2022-07-14T03:25:03,42.805,6.029,0.017,0.008,-0.01,104.0,105.0,102.0,13.4,1505.2,325.0,-0.8,1.8,2470.849,13.29,0.018,64.8
2022-07-14T03:28:03,42.805,6.029,0.003,0.024,0.004,105.0,104.0,102.0,13.4,1505.2,318.9,-0.8,1.8,2470.821,13.29,0.024,7.1
2022-07-14T03:31:03,42.805,6.029,-0.008,0.024,-0.019,104.0,105.0,102.0,13.4,1505.2,328.4,-0.7,1.8,2470.801,13.29,0.025,341.6
2022-07-14T03:34:03,42.805,6.029,-0.004,0.017,-0.013,105.0,104.0,102.0,13.4,1505.2,319.3,-0.8,1.8,2470.846,13.29,0.017,346.8
2022-07-14T03:37:03,42.805,6.029,-0.004,0.011,0.002,104.0,105.0,102.0,13.3,1505.2,329.5,-0.8,1.9,2470.815,13.29,0.011,340.0
2022-07-14T03:40:03,42.805,6.029,-0.008,0.006,-0.024,105.0,104.0,102.0,13.4,1505.2,319.4,-0.7,1.8,2470.826,13.29,0.01,306.9
2022-07-14T03:43:03,42.805,6.029,-0.011,0.027,-0.009,105.0,104.0,103.0,13.4,1505.2,326.4,-0.7,1.8,2470.847,13.29,0.029,337.8
2022-07-14T03:46:03,42.805,6.029,-0.012,0.009,0.007,104.0,105.0,103.0,13.4,1505.2,323.6,-0.8,1.8,2470.794,13.29,0.015,306.9
2022-07-14T03:49:03,42.805,6.029,0.003,0.035,0.025,103.0,106.0,102.0,13.4,1505.2,329.6,-0.7,1.8,2470.851,13.29,0.035,4.9
2022-07-14T03:52:03,42.805,6.029,0.002,0.0,-0.012,104.0,104.0,102.0,13.4,1505.2,320.8,-0.8,1.8,2470.842,13.29,0.002,90.0
2022-07-14T03:55:03,42.805,6.029,-0.003,-0.001,-0.012,106.0,104.0,102.0,13.3,1505.2,324.3,-0.8,1.8,2470.817,13.29,0.003,251.6
2022-07-14T03:58:03,42.805,6.029,-0.022,0.032,0.019,104.0,104.0,102.0,13.4,1505.2,332.5,-0.7,1.9,2470.845,13.29,0.038,325.5
2022-07-14T04:04:03,42.805,6.029,-0.019,0.016,-0.008,104.0,104.0,101.0,13.4,1505.2,330.7,-0.8,1.8,2470.871,13.29,0.024,310.1
2022-07-14T04:07:03,42.805,6.029,-0.025,0.011,-0.036,105.0,104.0,103.0,13.3,1505.2,326.7,-0.8,1.9,2470.867,13.29,0.027,293.7
2022-07-14T04:10:03,42.805,6.029,-0.01,0.007,0.004,104.0,104.0,101.0,13.4,1505.2,322.4,-0.8,1.8,2470.875,13.29,0.012,305.0
2022-07-14T04:13:03,42.805,6.029,0.007,0.027,0.029,103.0,104.0,102.0,13.3,1505.2,332.9,-0.8,1.8,2470.902,13.29,0.027,14.5
2022-07-14T04:16:03,42.805,6.029,0.005,0.026,-0.012,105.0,104.0,102.0,13.4,1505.2,327.3,-0.7,1.8,2470.886,13.29,0.026,10.9
2022-07-14T04:19:03,42.805,6.029,0.0,0.011,-0.009,104.0,105.0,103.0,13.3,1505.2,329.2,-0.8,1.8,2470.87,13.29,0.011,0.0
2022-07-14T04:22:03,42.805,6.029,-0.019,0.022,-0.041,104.0,104.0,101.0,13.4,1505.2,327.6,-0.7,1.8,2470.818,13.29,0.029,319.2
2022-07-14T04:25:03,42.805,6.029,0.013,0.021,-0.031,106.0,107.0,101.0,13.4,1505.2,323.5,-0.8,1.8,2470.896,13.29,0.024,31.8
2022-07-14T04:28:03,42.805,6.029,-0.004,0.018,-0.042,104.0,105.0,102.0,13.3,1505.2,323.7,-0.7,1.8,2470.865,13.29,0.018,347.5
2022-07-14T04:31:03,42.805,6.029,-0.015,0.009,-0.016,105.0,104.0,102.0,13.3,1505.2,332.9,-0.8,1.8,2470.852,13.29,0.017,301.0
2022-07-14T04:34:03,42.805,6.029,-0.035,0.021,0.021,105.0,103.0,102.0,13.3,1505.2,321.0,-0.8,1.8,2470.866,13.29,0.04,301.0
2022-07-14T04:37:03,42.805,6.029,0.006,0.018,-0.016,105.0,105.0,103.0,13.4,1505.2,328.6,-0.7,1.8,2470.879,13.29,0.018,18.4
2022-07-14T04:40:03,42.805,6.029,0.003,-0.004,-0.007,104.0,104.0,102.0,13.4,1505.2,324.8,-0.7,1.8,2470.896,13.29,0.005,143.1
2022-07-14T04:43:03,42.805,6.029,-0.005,0.016,-0.009,105.0,106.0,101.0,13.4,1505.2,325.2,-0.8,1.8,2470.89,13.29,0.016,342.6
2022-07-14T04:46:03,42.805,6.029,0.0,0.012,0.018,104.0,104.0,102.0,13.3,1505.2,329.4,-0.8,1.8,2470.854,13.29,0.012,0.0
2022-07-14T04:49:03,42.805,6.029,-0.003,0.023,-0.001,104.0,106.0,102.0,13.4,1505.2,326.5,-0.8,1.9,2470.871,13.29,0.023,352.6
2022-07-14T04:52:03,42.805,6.029,0.018,0.005,0.0,107.0,103.0,103.0,13.4,1505.2,323.9,-0.8,1.8,2470.868,13.29,0.018,74.5
2022-07-14T04:55:03,42.805,6.029,0.0,0.011,-0.033,105.0,105.0,102.0,13.3,1505.2,321.3,-0.8,1.8,2470.871,13.29,0.011,0.0
2022-07-14T04:58:03,42.805,6.029,-0.013,0.014,-0.025,106.0,103.0,102.0,13.4,1505.2,324.2,-0.7,1.8,2470.88,13.29,0.019,317.1
2022-07-14T05:04:03,42.805,6.029,-0.006,0.015,-0.019,106.0,105.0,102.0,13.4,1505.2,331.5,-0.8,1.8,2470.929,13.29,0.016,338.2
2022-07-14T05:07:03,42.805,6.029,-0.035,0.008,-0.029,106.0,106.0,102.0,13.3,1505.2,326.1,-0.8,1.8,2470.919,13.29,0.035,282.9
2022-07-14T05:10:03,42.805,6.029,-0.017,-0.003,-0.021,105.0,105.0,102.0,13.4,1505.2,325.8,-0.8,1.8,2470.9,13.29,0.017,260.0
2022-07-14T05:13:03,42.805,6.029,0.024,0.0,-0.023,104.0,104.0,101.0,13.4,1505.2,320.0,-0.8,1.8,2470.945,13.29,0.024,90.0
2022-07-14T05:16:03,42.805,6.029,0.001,0.013,-0.009,104.0,105.0,100.0,13.4,1505.2,324.8,-0.8,1.8,2470.933,13.29,0.013,4.4
2022-07-14T05:19:03,42.805,6.029,-0.022,0.011,-0.043,104.0,104.0,102.0,13.4,1505.2,322.8,-0.8,1.8,2470.938,13.29,0.024,296.6
2022-07-14T05:22:03,42.805,6.029,-0.012,0.003,-0.042,105.0,104.0,102.0,13.4,1505.2,323.6,-0.8,1.8,2470.925,13.29,0.012,284.0
2022-07-14T05:25:03,42.805,6.029,0.0,0.0,-0.021,104.0,104.0,102.0,13.3,1505.2,325.8,-0.8,1.8,2470.893,13.29,0.0,0.0
2022-07-14T05:28:03,42.805,6.029,0.007,0.025,-0.008,105.0,105.0,102.0,13.4,1505.2,324.2,-0.7,1.8,2470.889,13.29,0.025,15.6
2022-07-14T05:31:03,42.805,6.029,0.006,0.03,0.004,105.0,104.0,102.0,13.4,1505.2,327.6,-0.8,1.8,2470.9,13.29,0.03,11.3
2022-07-14T05:34:03,42.805,6.029,-0.027,0.008,-0.016,104.0,106.0,102.0,13.3,1505.2,328.8,-0.8,1.8,2470.957,13.29,0.028,286.5
2022-07-14T05:37:03,42.805,6.029,0.009,-0.001,-0.03,105.0,103.0,103.0,13.3,1505.2,327.3,-0.7,1.8,2470.918,13.29,0.009,96.3
2022-07-14T05:40:03,42.805,6.029,-0.002,0.017,0.018,104.0,104.0,101.0,13.3,1505.2,329.0,-0.8,1.8,2470.903,13.29,0.017,353.3
2022-07-14T05:43:03,42.805,6.029,-0.023,0.015,-0.019,104.0,104.0,103.0,13.3,1505.2,323.2,-0.8,1.9,2470.9,13.29,0.027,303.1
2022-07-14T05:46:03,42.805,6.029,0.009,0.011,-0.033,105.0,104.0,102.0,13.4,1505.2,318.7,-0.8,1.8,2470.925,13.29,0.014,39.3
2022-07-14T05:49:03,42.805,6.029,-0.026,0.018,0.014,104.0,105.0,101.0,13.4,1505.2,325.5,-0.8,1.8,2470.913,13.29,0.031,304.7
2022-07-14T05:52:03,42.805,6.029,-0.018,0.002,-0.004,104.0,105.0,101.0,13.4,1505.2,326.9,-0.8,1.8,2470.961,13.29,0.018,276.3
2022-07-14T05:55:03,42.805,6.029,-0.009,0.02,-0.028,104.0,105.0,102.0,13.4,1505.2,327.3,-0.7,1.8,2470.936,13.29,0.021,335.8
2022-07-14T05:58:03,42.805,6.029,-0.017,0.025,-0.02,104.0,105.0,102.0,13.4,1505.2,325.5,-0.8,1.8,2470.96,13.29,0.03,325.8
2022-07-14T06:04:03,42.805,6.029,-0.007,0.007,0.003,104.0,104.0,101.0,13.4,1505.2,321.6,-0.7,1.8,2470.963,13.29,0.009,315.0
2022-07-14T06:07:03,42.805,6.029,0.005,0.032,0.023,105.0,104.0,101.0,13.3,1505.2,331.8,-0.8,1.8,2470.985,13.29,0.032,8.9
2022-07-14T06:10:03,42.805,6.029,-0.015,0.021,-0.012,105.0,104.0,102.0,13.3,1505.2,322.3,-0.8,1.8,2470.962,13.29,0.025,324.5
2022-07-14T06:13:03,42.805,6.029,-0.013,0.016,0.004,103.0,104.0,101.0,13.4,1505.2,332.2,-0.8,1.9,2470.942,13.29,0.02,320.9
2022-07-14T06:16:03,42.805,6.029,-0.01,0.013,-0.008,103.0,103.0,102.0,13.4,1505.2,328.9,-0.7,1.8,2470.974,13.29,0.016,322.4
2022-07-14T06:19:03,42.805,6.029,0.0,0.025,0.015,103.0,103.0,102.0,13.4,1505.2,320.3,-0.7,1.8,2470.924,13.29,0.025,0.0
2022-07-14T06:22:03,42.805,6.029,-0.01,0.022,0.007,104.0,105.0,102.0,13.3,1505.2,323.3,-0.7,1.8,2470.918,13.29,0.024,335.6
2022-07-14T06:25:03,42.805,6.029,-0.014,0.019,-0.001,104.0,103.0,102.0,13.4,1505.2,327.8,-0.8,1.8,2470.926,13.29,0.023,323.6
2022-07-14T06:28:03,42.805,6.029,-0.004,0.013,-0.021,104.0,104.0,101.0,13.4,1505.2,330.6,-0.8,1.8,2470.976,13.29,0.013,342.9
2022-07-14T06:31:03,42.805,6.029,-0.014,0.036,-0.01,104.0,104.0,101.0,13.4,1505.2,327.9,-0.8,1.8,2470.969,13.29,0.038,338.8
2022-07-14T06:34:03,42.805,6.029,0.022,0.003,-0.032,105.0,104.0,100.0,13.3,1505.2,332.6,-0.8,1.8,2470.933,13.29,0.022,82.2
2022-07-14T06:37:03,42.805,6.029,0.011,0.017,0.02,104.0,104.0,102.0,13.3,1505.2,324.2,-0.7,1.8,2470.952,13.29,0.02,32.9
2022-07-14T06:40:03,42.805,6.029,-0.013,0.01,0.0,103.0,104.0,101.0,13.4,1505.2,320.7,-0.8,1.8,2470.93,13.29,0.016,307.6
2022-07-14T06:43:03,42.805,6.029,-0.004,0.032,-0.029,105.0,104.0,102.0,13.3,1505.2,327.8,-0.8,1.8,2470.926,13.29,0.032,352.9
2022-07-14T06:46:03,42.805,6.029,-0.005,0.016,-0.01,104.0,103.0,102.0,13.4,1505.2,318.4,-0.8,1.8,2470.958,13.29,0.016,342.6
2022-07-14T06:49:03,42.805,6.029,-0.021,0.004,-0.012,106.0,103.0,101.0,13.3,1505.2,332.4,-0.8,1.8,2470.941,13.29,0.021,280.8
2022-07-14T06:52:03,42.805,6.029,-0.014,0.009,0.014,105.0,104.0,101.0,13.4,1505.2,330.3,-0.7,1.8,2470.897,13.29,0.016,302.7
2022-07-14T06:55:03,42.805,6.029,0.014,0.005,0.002,105.0,105.0,101.0,13.4,1505.2,321.4,-0.7,1.8,2470.956,13.29,0.014,70.4
2022-07-14T06:58:03,42.805,6.029,-0.006,0.022,-0.021,104.0,104.0,102.0,13.3,1505.2,327.0,-0.8,1.8,2470.977,13.29,0.022,344.7
2022-07-14T07:04:03,42.805,6.029,-0.013,0.02,-0.033,104.0,104.0,101.0,13.4,1505.2,323.3,-0.7,1.8,2470.999,13.29,0.023,327.0
2022-07-14T07:07:03,42.805,6.029,-0.01,0.028,0.004,104.0,104.0,101.0,13.4,1505.2,331.5,-0.7,1.8,2470.969,13.29,0.029,340.4
2022-07-14T07:10:03,42.805,6.029,-0.001,0.017,0.0,104.0,103.0,101.0,13.4,1505.2,324.5,-0.8,1.9,2470.969,13.29,0.017,356.6
2022-07-14T07:13:03,42.805,6.029,-0.006,0.008,-0.009,104.0,104.0,102.0,13.4,1505.2,319.9,-0.8,1.8,2470.983,13.29,0.01,323.1
2022-07-14T07:16:03,42.805,6.029,-0.038,0.02,-0.018,104.0,104.0,101.0,13.4,1505.2,319.1,-0.7,1.8,2470.962,13.29,0.042,297.8
2022-07-14T07:19:03,42.805,6.029,0.002,0.021,0.006,104.0,104.0,101.0,13.3,1505.2,330.4,-0.8,1.8,2470.969,13.29,0.021,5.4
2022-07-14T07:22:03,42.805,6.029,0.0,0.019,-0.024,102.0,104.0,102.0,13.4,1505.2,323.5,-0.8,1.8,2470.967,13.29,0.019,0.0
2022-07-14T07:25:03,42.805,6.029,-0.003,0.021,-0.001,103.0,104.0,100.0,13.4,1505.2,328.7,-0.7,1.9,2470.934,13.29,0.021,351.9
2022-07-14T07:28:03,42.805,6.029,0.005,0.014,-0.014,103.0,103.0,101.0,13.4,1505.2,328.1,-0.7,1.8,2470.95,13.29,0.014,19.6
2022-07-14T07:31:03,42.805,6.029,0.0,0.016,0.006,105.0,103.0,101.0,13.4,1505.2,321.0,-0.8,1.8,2470.927,13.29,0.016,0.0
2022-07-14T07:34:03,42.805,6.029,-0.002,0.015,-0.018,101.0,103.0,101.0,13.3,1505.2,332.9,-0.8,1.8,2470.942,13.29,0.015,352.4
2022-07-14T07:37:03,42.805,6.029,0.002,0.011,-0.011,102.0,102.0,102.0,13.4,1505.2,323.7,-0.7,1.8,2470.931,13.29,0.011,10.3
2022-07-14T07:40:03,42.805,6.029,-0.008,0.028,-0.039,102.0,103.0,101.0,13.4,1505.2,319.8,-0.7,1.8,2470.958,13.29,0.029,344.1
2022-07-14T07:43:03,42.805,6.029,-0.02,0.017,-0.028,102.0,103.0,101.0,13.4,1505.2,329.7,-0.8,1.8,2470.963,13.29,0.026,310.4
2022-07-14T07:46:03,42.805,6.029,0.004,0.021,-0.026,104.0,102.0,101.0,13.4,1505.2,320.3,-0.8,1.9,2470.921,13.29,0.021,10.8
2022-07-14T07:49:03,42.805,6.029,0.002,0.024,-0.001,105.0,103.0,100.0,13.4,1505.2,319.7,-0.8,1.8,2470.951,13.29,0.024,4.8
2022-07-14T07:52:03,42.805,6.029,-0.015,0.029,-0.007,103.0,103.0,101.0,13.4,1505.2,327.5,-0.8,1.8,2470.887,13.29,0.032,332.6
2022-07-14T07:55:03,42.805,6.029,-0.014,0.015,-0.046,102.0,102.0,101.0,13.3,1505.2,320.0,-0.8,1.8,2470.913,13.29,0.02,317.0
2022-07-14T07:58:03,42.805,6.029,-0.007,0.04,0.0,102.0,104.0,101.0,13.4,1505.2,322.8,-0.8,1.8,2470.944,13.29,0.04,350.1
2022-07-14T08:04:03,42.805,6.029,0.021,0.012,-0.024,102.0,103.0,101.0,13.3,1505.2,329.6,-0.8,1.8,2470.981,13.29,0.024,60.3
2022-07-14T08:07:03,42.805,6.029,0.006,0.013,-0.007,102.0,102.0,100.0,13.4,1505.2,332.4,-0.8,1.9,2470.983,13.29,0.014,24.8
2022-07-14T08:10:03,42.805,6.029,-0.013,0.013,-0.052,103.0,104.0,100.0,13.4,1505.2,326.9,-0.8,1.9,2471.008,13.29,0.018,315.0
2022-07-14T08:13:03,42.805,6.029,-0.015,0.024,-0.019,101.0,103.0,101.0,13.4,1505.2,323.8,-0.8,1.8,2470.962,13.29,0.028,328.0
2022-07-14T08:16:03,42.805,6.029,-0.005,0.026,0.01,103.0,103.0,100.0,13.4,1505.2,319.4,-0.8,1.8,2470.993,13.29,0.026,349.1
2022-07-14T08:19:03,42.805,6.029,0.0,-0.004,-0.013,103.0,102.0,100.0,13.3,1505.2,323.2,-0.8,1.8,2470.937,13.29,0.004,180.0
2022-07-14T08:22:03,42.805,6.029,-0.014,0.026,0.005,102.0,103.0,100.0,13.4,1505.2,331.8,-0.8,1.8,2470.929,13.29,0.029,331.7
2022-07-14T08:25:03,42.805,6.029,-0.004,0.013,-0.022,102.0,103.0,101.0,13.4,1505.2,318.7,-0.7,1.8,2470.922,13.29,0.013,342.9
2022-07-14T08:28:03,42.805,6.029,0.001,0.03,0.0,103.0,103.0,101.0,13.3,1505.2,322.3,-0.8,1.8,2470.899,13.29,0.03,1.9
2022-07-14T08:31:03,42.805,6.029,0.003,0.024,-0.015,103.0,102.0,101.0,13.4,1505.2,323.0,-0.8,1.8,2470.922,13.29,0.024,7.1
2022-07-14T08:34:03,42.805,6.029,0.0,0.019,0.024,103.0,103.0,101.0,13.4,1505.2,325.3,-0.7,1.9,2470.954,13.29,0.019,0.0
2022-07-14T08:37:03,42.805,6.029,0.019,0.017,0.007,102.0,103.0,101.0,13.4,1505.2,325.0,-0.7,1.8,2470.894,13.29,0.025,48.2
2022-07-14T08:40:03,42.805,6.029,0.008,0.025,0.014,104.0,102.0,101.0,13.4,1505.2,320.0,-0.8,1.8,2470.879,13.29,0.026,17.7
2022-07-14T08:43:03,42.805,6.029,0.004,0.001,-0.01,104.0,102.0,100.0,13.4,1505.2,329.9,-0.8,1.8,2470.901,13.29,0.004,76.0
2022-07-14T08:46:03,42.805,6.029,0.002,0.013,-0.006,102.0,102.0,101.0,13.3,1505.2,329.5,-0.8,1.8,2470.891,13.29,0.013,8.7
2022-07-14T08:49:03,42.805,6.029,-0.009,0.024,-0.019,103.0,103.0,100.0,13.4,1505.2,327.9,-0.7,1.8,2470.907,13.29,0.025,339.4
2022-07-14T08:52:03,42.805,6.029,-0.007,0.027,0.0,101.0,102.0,100.0,13.4,1505.2,319.2,-0.8,1.8,2470.914,13.29,0.027,345.5
2022-07-14T08:55:03,42.805,6.029,0.001,0.018,-0.016,102.0,101.0,100.0,13.4,1505.2,325.2,-0.8,1.8,2470.875,13.29,0.018,3.2
2022-07-14T08:58:03,42.805,6.029,0.0,0.038,-0.006,103.0,102.0,100.0,13.4,1505.2,332.9,-0.7,1.8,2470.913,13.29,0.038,0.0
2022-07-14T09:04:03,42.805,6.029,0.009,0.011,0.029,102.0,102.0,101.0,13.4,1505.2,327.7,-0.8,1.8,2470.908,13.29,0.014,39.3
2022-07-14T09:07:03,42.805,6.029,0.006,0.033,0.023,101.0,103.0,99.0,13.4,1505.2,327.7,-0.8,1.9,2470.95,13.29,0.033,10.3
2022-07-14T09:10:03,42.805,6.029,-0.012,0.019,-0.017,103.0,102.0,101.0,13.4,1505.2,323.2,-0.8,1.8,2470.947,13.29,0.022,327.7
2022-07-14T09:13:03,42.805,6.029,-0.008,0.004,-0.007,103.0,101.0,100.0,13.4,1505.2,321.8,-0.7,1.8,2470.915,13.29,0.008,296.6
2022-07-14T09:16:03,42.805,6.029,0.025,0.008,0.009,102.0,102.0,100.0,13.4,1505.2,327.8,-0.8,1.8,2470.927,13.29,0.026,72.3
2022-07-14T09:19:03,42.805,6.029,0.011,0.035,0.007,102.0,102.0,99.0,13.4,1505.2,319.7,-0.8,1.8,2470.884,13.29,0.036,17.4
2022-07-14T09:22:03,42.805,6.029,-0.026,0.018,0.002,102.0,103.0,101.0,13.4,1505.2,321.8,-0.8,1.8,2470.89,13.29,0.031,304.7
2022-07-14T09:25:03,42.805,6.029,-0.01,0.022,-0.015,102.0,103.0,102.0,13.4,1505.2,330.6,-0.8,1.8,2470.906,13.29,0.024,335.6
2022-07-14T09:28:03,42.805,6.029,-0.01,0.007,0.0,101.0,103.0,100.0,13.4,1505.2,326.0,-0.8,1.8,2470.879,13.29,0.012,305.0
2022-07-14T09:31:03,42.805,6.029,-0.002,0.036,0.001,101.0,103.0,101.0,13.4,1505.2,328.8,-0.8,1.8,2470.888,13.29,0.036,356.8
2022-07-14T09:34:03,42.805,6.029,-0.009,0.029,-0.009,101.0,104.0,101.0,13.4,1505.2,330.1,-0.8,1.8,2470.91,13.29,0.03,342.8
2022-07-14T09:37:03,42.805,6.029,-0.018,0.024,-0.001,102.0,104.0,99.0,13.3,1505.2,328.4,-0.7,1.8,2470.911,13.29,0.03,323.1
2022-07-14T09:40:03,42.805,6.029,-0.016,0.027,-0.02,102.0,102.0,101.0,13.4,1505.2,330.9,-0.7,1.8,2470.899,13.29,0.031,329.3
2022-07-14T09:43:03,42.805,6.029,-0.02,0.021,-0.005,100.0,104.0,101.0,13.4,1505.2,334.1,-0.8,1.8,2470.902,13.29,0.028,316.4
2022-07-14T09:46:03,42.805,6.029,0.001,0.032,0.0,102.0,101.0,100.0,13.4,1505.2,323.7,-0.8,1.8,2470.866,13.29,0.032,1.8
2022-07-14T09:49:03,42.805,6.029,0.005,0.003,-0.055,103.0,103.0,101.0,13.4,1505.2,319.5,-0.8,1.8,2470.893,13.29,0.005,59.0
2022-07-14T09:52:03,42.805,6.029,-0.023,0.028,-0.018,101.0,102.0,101.0,13.4,1505.2,324.9,-0.8,1.9,2470.864,13.29,0.036,320.6
2022-07-14T09:55:03,42.805,6.029,-0.018,0.025,-0.026,102.0,103.0,101.0,13.4,1505.2,322.3,-0.7,1.8,2470.858,13.29,0.03,324.2
2022-07-14T09:58:03,42.805,6.029,0.002,0.037,0.003,103.0,104.0,101.0,13.4,1505.2,325.4,-0.7,1.8,2470.856,13.29,0.037,3.1
2022-07-14T10:04:03,42.805,6.029,0.001,0.013,-0.003,102.0,102.0,100.0,13.3,1505.2,321.1,-0.7,1.8,2470.923,13.29,0.013,4.4